Regional Weather Roundup
Issued by NWS San Angelo, TX

Home | Current Version | Previous Version | Text Only | Print | Product List | Glossary On
Versions: 1 2 3 4 5 6 7 8 9 10 11 12 13 14 15 16 17 18 19 20 21 22 23 24 25 26 27 28 29 30 31 32 33 34 35 36 37 38 39 40 41 42 43 44 45 46 47 48 49 50
000
ASUS44 KSJT 191610
RWRSJT
WEST CENTRAL TEXAS REGIONAL WEATHER ROUNDUP
NATIONAL WEATHER SERVICE SAN ANGELO TX
1000 AM CST FRI DEC 19 2014

NOTE: "FAIR" INDICATES FEW OR NO CLOUDS BELOW 12,000 FEET WITH NO
SIGNIFICANT WEATHER AND/OR OBSTRUCTIONS TO VISIBILITY.

TXZ049-054-064>066-071>073-076>078-098-099-113-114-127-128-139-140-
154-155-168>170-191700
...LOCATIONS ACROSS WEST CENTRAL TEXAS...

CITY           SKY/WX    TMP DP  RH WIND       PRES   REMARKS
SAN ANGELO     CLOUDY    46  43  89 NE7       30.18R
ABILENE        CLOUDY    44  41  89 NE5       30.20R
DYESS AFB      CLOUDY    44  39  83 E2        30.20R
JUNCTION       CLOUDY    49  44  83 NE7       30.15S
SWEETWATER     CLOUDY    41  41 100 CALM      30.22R
BROWNWOOD      MOSUNNY   48  45  87 NE9       30.19R
COLEMAN        CLOUDY    46  44  91 N7        30.18S
SONORA         CLOUDY    48  46  93 NE8       30.20R
OZONA          CLOUDY    45  43  93 NE7       30.19R FOG
BRADY          CLOUDY    46  45  93 N8        30.16R
$$

TEXAS PANHANDLE/OKLAHOMA PANHANDLE

CITY           SKY/WX    TMP DP  RH WIND       PRES   REMARKS
AMARILLO       FOG       37  36  96 SE6       30.18R VSB 1/4 WCI  32
BORGER         CLOUDY    38  33  82 SE5       30.18R HAZE    WCI  34
CANADIAN       LGT RAIN  40  39  97 S5        30.20R WCI  36
DALHART        FOG       33  32  96 SW7       30.16R VSB 1   WCI  27
DUMAS          CLOUDY    33  32  94 SW9       30.17R FOG     WCI  26
GUYMON         NOT AVBL
HEREFORD       CLOUDY    38  38  99 CALM      30.17R FOG
PAMPA          CLOUDY    37  35  92 S3        30.19R FOG
PERRYTON       CLOUDY    38  36  95 S5        30.19R WCI  34
$$

SOUTHERN PANHANDLE/SOUTH PLAINS/ROLLING PLAINS

CITY           SKY/WX    TMP DP  RH WIND       PRES   REMARKS
LUBBOCK        FOG       37  37 100 S10       30.17R VSB 1/8 WCI  30
SNYDER         CLOUDY    40  36  87 CALM      30.20R
CHILDRESS      CLOUDY    41  38  89 E5        30.23R WCI  38
SEMINOLE       CLOUDY    37  37 100 CALM      30.20R FOG
$$

PERMIAN BASIN

CITY           SKY/WX    TMP DP  RH WIND       PRES   REMARKS
MIDLAND        CLOUDY    42  39  89 E3        30.19R FOG
ODESSA         CLOUDY    40  38  93 NE5       30.19R FOG     WCI  37
WINK           MOSUNNY   41  35  79 NE6       30.18R WCI  37
$$

FAR WEST/SOUTHWEST MOUNTAINS/TRANS PECOS

CITY           SKY/WX    TMP DP  RH WIND       PRES   REMARKS
ALPINE         SUNNY     51  32  48 SW3       30.24R
DRYDEN           N/A     55  42  61 N10       30.15R
EL PASO        MOSUNNY   42  38  85 SE5       30.20R WCI  39
FORT STOCKTON  SUNNY     50  35  56 SW7       30.18R
GUADALUPE PASS FOG       36  36 100 SW14G24   30.18R VSB 1/4 WCI  27
MARFA          SUNNY     48  30  49 W7        30.21R
PECOS          SUNNY     46  38  73 NW3       30.19R
$$

DALLAS/FORT WORTH METROPLEX

CITY           SKY/WX    TMP DP  RH WIND       PRES   REMARKS
DFW AIRPORT    CLOUDY    46  44  93 N13       30.20R FOG
FTW MEACHAM    CLOUDY    47  44  90 N9        30.20R FOG
DAL-EXECUTIVE  CLOUDY    48  45  89 N9        30.18S FOG
GRAND PRAIRIE  CLOUDY    46  46 100 N9        30.21R FOG
ADDISON        CLOUDY    46  45  93 N9        30.20S
MESQUITE       CLOUDY    46  45  93 N8        30.20S FOG
LANCASTER      CLOUDY    46  44  92 NE7       30.21R FOG
$$

NORTH CENTRAL TEXAS

CITY           SKY/WX    TMP DP  RH WIND       PRES   REMARKS
SHRMAN/DENISON CLOUDY    44  44 100 CALM      30.24R FOG
GAINESVILLE    CLOUDY    43  42  97 N7        30.25R FOG     WCI  39
BRIDGEPORT     CLOUDY    46  45  99 N7        30.22S
DENTON         CLOUDY    44  43  96 N12       30.21R FOG     WCI  38
WAXAHACHIE     CLOUDY    46  46 100 N10       30.19S FOG
GRANBURY       CLOUDY    47  44  90 N7        30.22R
$$

WESTERN NORTH TEXAS

CITY           SKY/WX    TMP DP  RH WIND       PRES   REMARKS
WICHITA FALLS  CLOUDY    44  42  93 NE9       30.22R FOG     WCI  39
VERNON         CLOUDY    43  39  85 NE7       30.24R WCI  39
BRECKENRIDGE   CLOUDY    48  44  85 NE7       30.20R
COMANCHE       CLOUDY    45  45 100 NE7       30.19R
$$

CENTRAL AND SOUTH CENTRAL TEXAS

CITY           SKY/WX    TMP DP  RH WIND       PRES   REMARKS
AUSTIN/BERGSTM CLOUDY    51  51 100 N14       30.13R
WACO           CLOUDY    48  46  93 N10       30.18R FOG
HILLSBORO      CLOUDY    47  45  93 N9        30.18R FOG
TEMPLE         CLOUDY    48  45  87 N10       30.16R
KILLEEN-GRAY   CLOUDY    48  47  98 N15       30.16R
FORT HOOD      NOT AVBL
GEORGETOWN     CLOUDY    50  46  87 N8        30.14R
LAGO VISTA     CLOUDY    50  49  95 N9        30.14R FOG
SAN MARCOS     PTSUNNY   52  48  87 N15       30.11S
NEW BRAUNFELS  CLOUDY    53  32  44 N12       30.11R
RANDOLPH AFB   CLOUDY    53  49  85 N12G18    30.11R
SAN ANTONIO    PTSUNNY   56  49  77 N14G24    30.11R
STINSON        PTSUNNY   56  49  77 N13G21    30.09S
PLEASANTON     NOT AVBL
LA GRANGE      CLOUDY    54  52  94 NE8G17    30.09R
GIDDINGS       DRIZZLE   51  50  97 NE10G16   30.14R
$$

EAST TEXAS

CITY           SKY/WX    TMP DP  RH WIND       PRES   REMARKS
PARIS          CLOUDY    45  43  93 E6        30.24S
CLARKSVILLE    NOT AVBL
TYLER          CLOUDY    48  46  93 E8        30.17S
LONGVIEW       LGT RAIN  48  45  89 E12       30.21F
PALESTINE      DRIZZLE   49  48  97 NE9       30.15F
NACOGDOCHES    CLOUDY    48  46  93 N10       30.19R
$$

TEXAS HILL COUNTRY AND EDWARDS PLATEAU

CITY           SKY/WX    TMP DP  RH WIND       PRES   REMARKS
LLANO          CLOUDY    48  48 100 N8        30.20R
HORSESHOE BAY  CLOUDY    49  49 100 N3        30.16R
KERRVILLE      CLOUDY    51  47  86 N9        30.15R
FREDERICKSBRG  CLOUDY    49  46  90 N8        30.15R
ROCKSPRINGS    CLOUDY    46  46 100 NE12      30.16R FOG
HONDO          CLOUDY    57  50  77 NE15      30.13R
UVALDE         CLOUDY    53  46  79 NE8       30.12R
DEL RIO        CLOUDY    59  52  77 N12       30.12R
$$

SOUTHEAST TEXAS

CITY           SKY/WX    TMP DP  RH WIND       PRES   REMARKS
COLLEGE STN    LGT RAIN  50  49  96 N18       30.13S
CALDWELL       LGT RAIN  50  50 100 N9G18     30.16R
CROCKETT       RAIN      52  52 100 N14       30.20S
BRENHAM        DRIZZLE   53  51  95 NE10G16   30.11R
HUNTSVILLE     RAIN      50  49  96 VRB6      30.13F FOG
CONROE         LGT RAIN  52  50  93 N13       30.13R FOG
HOUSTON BUSH   RAIN      57  56  96 N14       30.08R FOG
HOUSTON HOBBY  RAIN      60  58  92 E14       30.05R FOG
PERLAND        HVY RAIN  60  58  92 E17G32    30.04S FOG
WHARTON        RAIN      54  53  97 N18G25    30.07R
$$

THE UPPER TEXAS COAST

CITY           SKY/WX    TMP DP  RH WIND       PRES   REMARKS
ORANGE         RAIN      57  56  99 N7        30.11R
PORT ARTHUR    LGT RAIN  59  57  93 NE10      30.07S
GALVESTON      RAIN      61  59  93 NE17G26   30.02F FOG
ANGLETON       HVY RAIN  59  59 100 NE6       30.04R FOG
BAY CITY       LGT RAIN  62  62 100 NE14      30.01S
$$

TEXAS COASTAL BEND, RIO GRANDE PLAINS DEEP SOUTH TEXAS

CITY           SKY/WX    TMP DP  RH WIND       PRES   REMARKS
VICTORIA       LGT RAIN  55  52  89 N18G26    30.06R
BEEVILLE       LGT RAIN  53  53 100 N14G22    30.08R
ROCKPORT       LGT RAIN  58  56  93 N21       30.04R
PORT ARANSAS   RAIN      61  60  97 N16       30.03R
PORT LAVACA    HVY RAIN  55  55  97 N20G28    30.03S VSB 3/4
CORPUS CHRISTI LGT RAIN  58  55  90 N21       30.04R
KINGSVILLE NAS CLOUDY    59  58  96 N20G25    30.05R
COTULLA        CLOUDY    56  53  90 NE16      30.10R
LAREDO         CLOUDY    57  55  94 N12       30.11R
BROWNSVILLE    CLOUDY    71  67  87 W5        30.01R
PORT ISABEL    CLOUDY    69  67  93 W5        30.01R FOG
HEBBRONVILLE   CLOUDY    55  55  97 N13       30.07R FOG
MCALLEN        CLOUDY    64  63  96 NW7       30.04R FOG
WESLACO        CLOUDY    65  62  90 W6        30.02R FOG
FALFURRIAS     CLOUDY    62  59  90 N10G16    30.03R
EDINBURG       CLOUDY    67  64  89 W7        30.03R
$$



USA.gov is the U.S. government's official web portal to all federal, state and local government web resources and services.